Mount Pleasant, IA

4:39 AM CDT on June 25, 2017 (GMT -0500)
Mount Pleasant Municipal

Weather History for KMPZ - June, 2013

Change the Weather History Date:

Friday, June 21, 2013

  Actual Average Record
Temperature  
Mean Temperature 82 °F -  
Max Temperature 89 °F 82 °F 98 °F (1988)
Min Temperature 75 °F 61 °F 43 °F (1992)
Cooling Degree Days 16    
Growing Degree Days 32 (Base 50)    
Moisture  
Dew Point 68 °F    
Average Humidity 62    
Maximum Humidity 75    
Minimum Humidity 51    
Precipitation  
Precipitation 0.00 in - - ()
Sea Level Pressure  
Sea Level Pressure 29.99 in    
Wind  
Wind Speed 11 mph (SSE)    
Max Wind Speed 22 mph    
Max Gust Speed 33 mph    
Visibility 10 miles    
Events Rain    
Averages and records for this station are not official NWS values.
T = Trace of Precipitation, MM = Missing Value Source: NWS Daily Summary

Daily Weather History Graph

Daily Weather History Graph

Search for Another Location

Airport or City:

Trip Planner

Search our weather history database for the weather conditions in past years. The results will help you decide how hot, cold, wet, or windy it might be!

Date:

Astronomy

Jun. 21, 2013 Rise Set
Actual Time 5:34 AM CDT 8:41 PM CDT
Civil Twilight 5:00 AM CDT 9:15 PM CDT
Nautical Twilight 4:17 AM CDT 9:58 PM CDT
Astronomical Twilight 3:26 AM CDT 10:49 PM CDT
Moon 6:52 PM CDT (6/21) 3:50 AM CDT (6/21)
Length of Visible Light 16h 14m
Length of Day
15h 07m
Waxing Gibbous, 95% of the Moon is Illuminated
Jun 21
Waxing Gibbous
Jun 23
Full
Jun 29
Last Quarter
Jul 8
New
Jul 15
First Quarter

Hourly Weather History & Observations

Time (CDT) Temp. Heat Index Dew Point Humidity Pressure Visibility Wind Dir Wind Speed Gust Speed Precip Events Conditions
12:15 AM 79.7 °F - 65.3 °F 61% 30.02 in 10.0 mi South 10.4 mph 16.1 mph N/A   Clear
12:35 AM 79.2 °F - 65.8 °F 64% 30.02 in 10.0 mi SSE 12.7 mph - N/A Rain Light Rain
12:55 AM 78.6 °F - 66.2 °F 66% 30.03 in 10.0 mi SSE 8.1 mph - N/A   Clear
1:15 AM 76.6 °F - 67.5 °F 73% 30.03 in 10.0 mi SE 6.9 mph - N/A Rain Light Rain
1:35 AM 76.1 °F - 67.5 °F 74% 30.03 in 10.0 mi SE 9.2 mph - N/A   Clear
1:55 AM 76.1 °F - 67.3 °F 74% 30.03 in 10.0 mi South 8.1 mph - N/A   Clear
2:15 AM 75.7 °F - 67.3 °F 75% 30.03 in 10.0 mi SSE 8.1 mph - N/A   Clear
2:35 AM 76.3 °F - 66.9 °F 73% 30.03 in 10.0 mi South 9.2 mph - N/A   Clear
2:55 AM 76.5 °F - 66.6 °F 71% 30.02 in 10.0 mi SSE 11.5 mph - N/A   Clear
3:15 AM 76.5 °F - 66.6 °F 71% 30.01 in 10.0 mi SSE 11.5 mph - N/A   Clear
3:35 AM 76.1 °F - 66.4 °F 72% 30.01 in 10.0 mi SSE 10.4 mph - N/A   Clear
3:55 AM 76.1 °F - 66.2 °F 71% 30.00 in 10.0 mi SSE 11.5 mph - N/A   Clear
4:15 AM 76.6 °F - 65.5 °F 68% 29.98 in 10.0 mi South 13.8 mph 18.4 mph N/A   Clear
4:35 AM 76.6 °F - 65.3 °F 68% 29.98 in 10.0 mi South 13.8 mph - N/A   Clear
4:55 AM 77.0 °F - 65.3 °F 67% 30.00 in 10.0 mi South 12.7 mph 17.3 mph N/A   Clear
5:15 AM 77.0 °F - 65.3 °F 67% 30.00 in 10.0 mi South 11.5 mph 19.6 mph N/A   Clear
5:35 AM 77.0 °F - 65.3 °F 67% 30.02 in 10.0 mi South 12.7 mph 18.4 mph N/A   Clear
5:55 AM 76.3 °F - 65.3 °F 69% 30.02 in 10.0 mi South 10.4 mph - N/A   Clear
6:15 AM 76.1 °F - 65.3 °F 69% 30.03 in 10.0 mi SSE 8.1 mph - N/A   Scattered Clouds
6:35 AM 76.1 °F - 65.5 °F 70% 30.01 in 10.0 mi South 10.4 mph 16.1 mph N/A   Mostly Cloudy
6:55 AM 76.3 °F - 65.7 °F 70% 30.00 in 10.0 mi South 12.7 mph - N/A   Scattered Clouds
7:15 AM 77.0 °F - 65.8 °F 68% 30.00 in 10.0 mi South 12.7 mph 18.4 mph N/A   Clear
7:35 AM 77.9 °F - 66.0 °F 67% 30.00 in 10.0 mi South 16.1 mph - N/A   Clear
7:55 AM 78.8 °F - 66.6 °F 66% 29.99 in 10.0 mi South 12.7 mph - N/A   Clear
8:15 AM 79.5 °F - 66.9 °F 65% 29.99 in 10.0 mi South 13.8 mph 20.7 mph N/A   Clear
8:35 AM 79.9 °F - 67.3 °F 65% 29.99 in 7.0 mi South 13.8 mph - N/A   Clear
8:55 AM 80.8 °F 83.5 °F 67.8 °F 65% 30.00 in 10.0 mi South 15.0 mph - N/A   Clear
9:15 AM 81.9 °F 84.8 °F 68.0 °F 63% 30.00 in 10.0 mi South 18.4 mph 23.0 mph N/A   Clear
9:35 AM 82.6 °F 85.7 °F 68.4 °F 62% 30.01 in 10.0 mi South 12.7 mph 20.7 mph N/A   Clear
9:55 AM 83.3 °F 86.6 °F 68.7 °F 61% 30.00 in 10.0 mi South 16.1 mph 19.6 mph N/A   Clear
10:15 AM 84.2 °F 87.9 °F 68.7 °F 60% 30.01 in 10.0 mi South 15.0 mph - N/A   Clear
10:35 AM 85.3 °F 89.1 °F 69.1 °F 58% 30.01 in 10.0 mi South 15.0 mph - N/A   Clear
10:55 AM 86.0 °F 90.4 °F 69.4 °F 58% 30.01 in 10.0 mi South 13.8 mph - N/A   Clear
11:15 AM 86.0 °F 90.1 °F 69.3 °F 57% 30.03 in 10.0 mi South 8.1 mph 13.8 mph N/A   Clear
11:35 AM 86.5 °F 91.0 °F 69.6 °F 57% 30.04 in 10.0 mi SSW 5.8 mph - N/A   Clear
11:55 AM 87.3 °F 91.6 °F 69.3 °F 55% 30.04 in 10.0 mi SSE 5.8 mph - N/A   Clear
12:15 PM 88.7 °F 93.0 °F 69.3 °F 52% 30.06 in 10.0 mi ESE 3.5 mph - N/A   Clear
12:35 PM 88.3 °F 92.8 °F 69.1 °F 53% 30.06 in 10.0 mi East 4.6 mph - N/A   Clear
12:55 PM 88.0 °F 92.1 °F 69.1 °F 53% 30.05 in 10.0 mi ESE 6.9 mph - N/A   Clear
1:15 PM 79.7 °F - 63.1 °F 57% 30.06 in 10.0 mi NNE 21.9 mph 33.4 mph N/A   Mostly Cloudy
1:35 PM 81.7 °F 83.0 °F 63.7 °F 54% 30.04 in 10.0 mi ENE 20.7 mph 25.3 mph N/A   Scattered Clouds
1:55 PM 84.2 °F 86.1 °F 65.1 °F 53% 30.03 in 10.0 mi ENE 15.0 mph - N/A   Clear
2:15 PM 84.4 °F 86.3 °F 65.7 °F 53% 30.02 in 10.0 mi East 13.8 mph - N/A   Clear
2:35 PM 85.3 °F 87.6 °F 66.2 °F 53% 30.01 in 10.0 mi East 17.3 mph - N/A   Clear
2:55 PM 86.9 °F 89.9 °F 67.5 °F 52% 29.99 in 10.0 mi ESE 18.4 mph 23.0 mph N/A   Clear
3:15 PM 87.8 °F 91.4 °F 68.0 °F 52% 29.98 in 10.0 mi SE 15.0 mph - N/A   Clear
3:35 PM 88.2 °F 92.1 °F 68.5 °F 52% 29.97 in 7.0 mi ESE 15.0 mph - N/A   Clear
3:55 PM 87.8 °F 91.1 °F 67.6 °F 51% 29.97 in 10.0 mi ESE 13.8 mph 18.4 mph N/A   Clear
4:15 PM 85.6 °F 87.9 °F 66.4 °F 52% 29.98 in 10.0 mi ESE 15.0 mph - N/A   Clear
4:35 PM 87.3 °F 90.2 °F 67.3 °F 51% 29.96 in 10.0 mi ESE 16.1 mph - N/A   Clear
4:55 PM 85.8 °F 88.8 °F 67.3 °F 54% 29.95 in 10.0 mi SE 17.3 mph 20.7 mph N/A   Clear
5:15 PM 85.8 °F 89.1 °F 68.0 °F 55% 29.95 in 10.0 mi ESE 12.7 mph - N/A   Clear
5:35 PM 85.5 °F 88.8 °F 68.4 °F 56% 29.94 in 10.0 mi SE 17.3 mph - N/A   Clear
5:55 PM 85.5 °F 89.4 °F 69.1 °F 58% 29.92 in 10.0 mi SE 15.0 mph - N/A   Clear
6:15 PM 85.5 °F 90.1 °F 70.0 °F 60% 29.91 in 10.0 mi SE 15.0 mph - N/A   Clear
6:35 PM 86.9 °F 92.5 °F 70.9 °F 59% 29.91 in 10.0 mi SSE 11.5 mph - N/A   Clear
6:55 PM 88.7 °F 94.8 °F 71.1 °F 56% 29.92 in 7.0 mi South 13.8 mph 18.4 mph N/A   Clear
7:15 PM 88.7 °F 93.9 °F 70.3 °F 54% 29.91 in 10.0 mi South 15.0 mph 20.7 mph N/A   Clear
7:35 PM 88.0 °F 92.9 °F 70.2 °F 55% 29.91 in 10.0 mi South 15.0 mph 20.7 mph N/A   Clear
7:55 PM 87.3 °F 92.8 °F 70.7 °F 58% 29.91 in 7.0 mi South 12.7 mph - N/A   Clear
8:15 PM 86.4 °F 91.8 °F 70.9 °F 60% 29.93 in 7.0 mi South 10.4 mph - N/A   Clear
8:35 PM 85.5 °F 90.8 °F 70.9 °F 62% 29.94 in 10.0 mi South 8.1 mph - N/A   Clear
8:55 PM 84.6 °F 89.4 °F 70.9 °F 63% 29.95 in 10.0 mi South 5.8 mph - N/A   Clear
9:15 PM 83.8 °F 88.6 °F 71.1 °F 65% 29.97 in 10.0 mi South 5.8 mph - N/A   Clear
9:35 PM 83.3 °F 87.9 °F 71.1 °F 66% 29.97 in 10.0 mi SSE 6.9 mph - N/A   Clear
9:55 PM 83.3 °F 87.9 °F 71.1 °F 66% 29.98 in 10.0 mi SSE 6.9 mph - N/A   Clear
10:15 PM 82.8 °F 87.4 °F 71.1 °F 68% 29.99 in 10.0 mi SSE 6.9 mph - N/A   Clear
10:35 PM 82.2 °F 86.6 °F 71.2 °F 69% 29.99 in 10.0 mi SSE 8.1 mph - N/A   Clear
10:55 PM 82.2 °F 86.6 °F 71.2 °F 69% 29.99 in 10.0 mi South 9.2 mph - N/A   Clear
11:15 PM 82.0 °F 86.5 °F 71.2 °F 70% 29.99 in 10.0 mi South 9.2 mph - N/A   Clear
11:35 PM 81.9 °F 86.2 °F 71.1 °F 70% 29.99 in 10.0 mi South 9.2 mph - N/A   Clear
11:55 PM 81.5 °F 85.5 °F 71.1 °F 70% 29.99 in 10.0 mi South 10.4 mph - N/A   Clear